| time (UTC) | temp F | wind direction | speed MPH | gust MPH | rain 1hr in | rain 24hr in | rain mn in | humidity % | barometer mb |
| 20260508130105 | 49 | 185 | 0.0 | 0.0 | 0.00 | 0.00 | 0.00 | 71 | 1009.7 |
| 20260508124541 | 47 | 185 | 0.0 | 0.0 | 0.00 | 0.00 | 0.00 | 72 | 1009.6 |
| 20260508123040 | 46 | 184 | 0.0 | 0.0 | 0.00 | 0.00 | 0.00 | 73 | 1009.5 |
| 20260508121547 | 46 | 184 | 0.0 | 0.0 | 0.00 | 0.00 | 0.00 | 74 | 1009.3 |
| 20260508120039 | 45 | 184 | 0.0 | 0.0 | 0.00 | 0.00 | 0.00 | 74 | 1009.3 |
| 20260508114536 | 46 | 185 | 0.0 | 2.0 | 0.00 | 0.00 | 0.00 | 73 | 1009.1 |
| 20260508113041 | 47 | 171 | 0.0 | 1.0 | 0.00 | 0.00 | 0.00 | 71 | 1009.1 |
| 20260508111532 | 48 | 171 | 0.0 | 0.0 | 0.00 | 0.00 | 0.00 | 69 | 1009.1 |
| 20260508110031 | 48 | 171 | 3.0 | 5.0 | 0.00 | 0.00 | 0.00 | 69 | 1009.0 |
| 20260508104543 | 48 | 16 | 0.0 | 0.0 | 0.00 | 0.00 | 0.00 | 71 | 1009.1 |
| 20260508103035 | 48 | 16 | 0.0 | 0.0 | 0.00 | 0.00 | 0.00 | 72 | 1008.9 |
| 20260508101527 | 48 | 16 | 0.0 | 0.0 | 0.00 | 0.00 | 0.00 | 69 | 1009.2 |
| 20260508100023 | 49 | 16 | 0.0 | 3.0 | 0.00 | 0.00 | 0.00 | 67 | 1009.4 |
| 20260508094519 | 50 | 16 | 0.0 | 0.0 | 0.00 | 0.00 | 0.00 | 64 | 1009.2 |
| 20260508093018 | 50 | 16 | 0.0 | 0.0 | 0.00 | 0.00 | 0.00 | 63 | 1009.2 |
| 20260508091516 | 52 | 16 | 0.0 | 0.0 | 0.00 | 0.00 | 0.00 | 60 | 1009.2 |
| 20260508090015 | 53 | 16 | 0.0 | 0.0 | 0.00 | 0.00 | 0.00 | 59 | 1009.1 |
| 20260508084507 | 54 | 16 | 0.0 | 0.0 | 0.00 | 0.00 | 0.00 | 57 | 1009.3 |
| 20260508083002 | 56 | 16 | 0.0 | 2.0 | 0.00 | 0.00 | 0.00 | 54 | 1009.2 |
| 20260508081602 | 57 | 351 | 2.0 | 6.0 | 0.00 | 0.00 | 0.00 | 48 | 1009.4 |
| 20260508080111 | 57 | 40 | 3.0 | 8.0 | 0.00 | 0.00 | 0.00 | 48 | 1009.4 |
| 20260508074557 | 57 | 20 | 5.0 | 9.0 | 0.00 | 0.00 | 0.00 | 48 | 1009.3 |
| 20260508073058 | 57 | 1 | 4.0 | 7.0 | 0.00 | 0.00 | 0.00 | 49 | 1009.5 |
| 20260508071600 | 57 | 36 | 3.0 | 6.0 | 0.00 | 0.00 | 0.00 | 48 | 1009.6 |
| 20260508070137 | 57 | 33 | 3.0 | 7.0 | 0.00 | 0.00 | 0.00 | 49 | 1009.8 |
| 20260508064605 | 58 | 13 | 3.0 | 5.0 | 0.00 | 0.00 | 0.00 | 47 | 1009.9 |
| 20260508063050 | 58 | 25 | 3.0 | 7.0 | 0.00 | 0.00 | 0.00 | 45 | 1009.8 |
| 20260508061549 | 59 | 26 | 6.0 | 10.0 | 0.00 | 0.00 | 0.00 | 43 | 1009.7 |
| 20260508060045 | 58 | 32 | 6.0 | 12.0 | 0.00 | 0.00 | 0.00 | 46 | 1009.8 |
| 20260508054544 | 58 | 1 | 2.0 | 5.0 | 0.00 | 0.00 | 0.00 | 46 | 1009.6 |
| 20260508053045 | 58 | 340 | 0.0 | 3.0 | 0.00 | 0.00 | 0.00 | 45 | 1009.4 |
| 20260508051542 | 57 | 274 | 2.0 | 6.0 | 0.00 | 0.00 | 0.00 | 50 | 1009.6 |
| 20260508050041 | 57 | 290 | 0.0 | 1.0 | 0.00 | 0.00 | 0.00 | 49 | 1009.8 |
| 20260508044541 | 57 | 290 | 0.0 | 1.0 | 0.00 | 0.00 | 0.00 | 49 | 1009.9 |
| 20260508043056 | 57 | 261 | 0.0 | 4.0 | 0.00 | 0.00 | 0.00 | 51 | 1010.0 |
| 20260508041540 | 58 | 40 | 0.0 | 0.0 | 0.00 | 0.00 | 0.00 | 44 | 1009.9 |
| 20260508040039 | 59 | 40 | 0.0 | 2.0 | 0.00 | 0.00 | 0.00 | 44 | 1010.0 |
| 20260508034540 | 57 | 31 | 1.0 | 3.0 | 0.00 | 0.00 | 0.00 | 44 | 1009.9 |
| 20260508033039 | 57 | 31 | 0.0 | 0.0 | 0.00 | 0.00 | 0.00 | 49 | 1009.8 |
| 20260508031545 | 58 | 31 | 0.0 | 1.0 | 0.00 | 0.00 | 0.00 | 47 | 1009.7 |
| 20260508030049 | 59 | 31 | 0.0 | 0.0 | 0.00 | 0.00 | 0.00 | 43 | 1009.6 |
| 20260508024536 | 59 | 31 | 0.0 | 3.0 | 0.00 | 0.00 | 0.00 | 41 | 1009.5 |
| 20260508023042 | 60 | 31 | 0.0 | 0.0 | 0.00 | 0.00 | 0.00 | 39 | 1009.2 |
| 20260508021538 | 61 | 31 | 0.0 | 1.0 | 0.00 | 0.00 | 0.00 | 40 | 1009.1 |
| 20260508020035 | 64 | 15 | 1.0 | 2.0 | 0.00 | 0.00 | 0.00 | 37 | 1009.1 |
| 20260508014534 | 66 | 15 | 0.0 | 0.0 | 0.00 | 0.00 | 0.00 | 31 | 1008.7 |
| 20260508013033 | 67 | 331 | 3.0 | 8.0 | 0.00 | 0.00 | 0.00 | 28 | 1008.5 |
| 20260508011532 | 67 | 257 | 0.0 | 3.0 | 0.00 | 0.00 | 0.00 | 28 | 1008.8 |
| 20260508010031 | 67 | 78 | 1.0 | 10.0 | 0.00 | 0.00 | 0.00 | 28 | 1008.9 |
| 20260508004529 | 67 | 98 | 6.0 | 11.0 | 0.00 | 0.00 | 0.00 | 27 | 1009.0 |
| 20260508003027 | 68 | 59 | 4.0 | 11.0 | 0.00 | 0.00 | 0.00 | 28 | 1009.3 |
| 20260508001528 | 69 | 88 | 5.0 | 10.0 | 0.00 | 0.00 | 0.00 | 27 | 1009.3 |
| 20260508000024 | 69 | 91 | 6.0 | 11.0 | 0.00 | 0.00 | 0.00 | 25 | 1009.6 |
| 20260507234524 | 69 | 76 | 6.0 | 10.0 | 0.00 | 0.00 | 0.00 | 24 | 1009.6 |
| 20260507233024 | 69 | 53 | 10.0 | 13.0 | 0.00 | 0.00 | 0.00 | 24 | 1009.7 |
| 20260507231526 | 71 | 11 | 3.0 | 7.0 | 0.00 | 0.00 | 0.00 | 22 | 1010.0 |
| 20260507230021 | 72 | 291 | 1.0 | 7.0 | 0.00 | 0.00 | 0.00 | 22 | 1010.1 |
| 20260507224518 | 72 | 198 | 6.0 | 11.0 | 0.00 | 0.00 | 0.00 | 21 | 1010.2 |
| 20260507223017 | 73 | 164 | 4.0 | 11.0 | 0.00 | 0.00 | 0.00 | 21 | 1010.3 |
| 20260507221514 | 72 | 210 | 5.0 | 12.0 | 0.00 | 0.00 | 0.00 | 21 | 1010.7 |
| 20260507220012 | 72 | 105 | 2.0 | 10.0 | 0.00 | 0.03 | 0.00 | 21 | 1011.0 |
| 20260507214508 | 73 | 228 | 0.0 | 5.0 | 0.00 | 0.03 | 0.00 | 21 | 1011.5 |
| 20260507213004 | 71 | 200 | 5.0 | 12.0 | 0.00 | 0.03 | 0.00 | 23 | 1011.8 |
| 20260507211503 | 71 | 222 | 2.0 | 10.0 | 0.00 | 0.03 | 0.00 | 22 | 1012.3 |
| 20260507210100 | 70 | 335 | 1.0 | 7.0 | 0.00 | 0.03 | 0.00 | 23 | 1012.7 |
| 20260507204601 | 70 | 238 | 4.0 | 11.0 | 0.00 | 0.03 | 0.00 | 23 | 1013.2 |
| 20260507203055 | 70 | 205 | 2.0 | 10.0 | 0.00 | 0.03 | 0.00 | 21 | 1013.7 |
| 20260507201601 | 69 | 221 | 3.0 | 8.0 | 0.00 | 0.03 | 0.00 | 22 | 1014.1 |
| 20260507200054 | 69 | 300 | 2.0 | 8.0 | 0.00 | 0.07 | 0.00 | 18 | 1014.5 |
| 20260507194550 | 69 | 267 | 4.0 | 10.0 | 0.00 | 0.07 | 0.00 | 21 | 1014.7 |
| 20260507193042 | 68 | 241 | 3.0 | 10.0 | 0.00 | 0.07 | 0.00 | 20 | 1015.0 |
| 20260507191545 | 67 | 189 | 3.0 | 8.0 | 0.00 | 0.07 | 0.00 | 21 | 1015.2 |
| 20260507190036 | 66 | 257 | 1.0 | 6.0 | 0.00 | 0.12 | 0.00 | 22 | 1015.6 |
| 20260507184536 | 66 | 311 | 3.0 | 12.0 | 0.00 | 0.12 | 0.00 | 24 | 1016.0 |
| 20260507183038 | 65 | 298 | 4.0 | 12.0 | 0.00 | 0.12 | 0.00 | 27 | 1016.4 |
| 20260507181527 | 64 | 257 | 5.0 | 17.0 | 0.00 | 0.12 | 0.00 | 27 | 1016.8 |
| 20260507180024 | 64 | 231 | 7.0 | 16.0 | 0.00 | 0.15 | 0.00 | 29 | 1017.1 |
| 20260507174527 | 63 | 231 | 9.0 | 18.0 | 0.00 | 0.15 | 0.00 | 28 | 1017.4 |
| 20260507173017 | 62 | 215 | 6.0 | 18.0 | 0.00 | 0.15 | 0.00 | 30 | 1017.8 |
| 20260507171519 | 61 | 233 | 11.0 | 18.0 | 0.00 | 0.15 | 0.00 | 28 | 1018.1 |
| 20260507170011 | 60 | 217 | 8.0 | 18.0 | 0.00 | 0.19 | 0.00 | 28 | 1018.4 |
| 20260507164509 | 60 | 244 | 4.0 | 12.0 | 0.00 | 0.19 | 0.00 | 34 | 1018.6 |
| 20260507163003 | 58 | 211 | 7.0 | 20.0 | 0.00 | 0.19 | 0.00 | 35 | 1018.8 |
| 20260507161608 | 57 | 234 | 8.0 | 21.0 | 0.00 | 0.19 | 0.00 | 35 | 1019.0 |
| 20260507160056 | 56 | 240 | 10.0 | 20.0 | 0.00 | 0.23 | 0.00 | 35 | 1019.3 |
| 20260507154552 | 55 | 246 | 7.0 | 19.0 | 0.00 | 0.23 | 0.00 | 38 | 1019.3 |
| 20260507153050 | 54 | 271 | 5.0 | 16.0 | 0.00 | 0.23 | 0.00 | 38 | 1019.6 |
| 20260507151546 | 53 | 252 | 6.0 | 19.0 | 0.00 | 0.23 | 0.00 | 37 | 1019.9 |
| 20260507150046 | 52 | 234 | 6.0 | 16.0 | 0.00 | 0.23 | 0.00 | 39 | 1020.2 |
| 20260507144540 | 52 | 246 | 7.0 | 16.0 | 0.00 | 0.23 | 0.00 | 37 | 1020.1 |
| 20260507143055 | 49 | 188 | 5.0 | 14.0 | 0.00 | 0.23 | 0.00 | 43 | 1020.4 |
| 20260507141547 | 48 | 271 | 3.0 | 12.0 | 0.00 | 0.23 | 0.00 | 49 | 1020.7 |
| 20260507140028 | 46 | 318 | 5.0 | 16.0 | 0.00 | 0.24 | 0.00 | 49 | 1021.0 |
| 20260507134524 | 44 | 310 | 3.0 | 9.0 | 0.00 | 0.24 | 0.00 | 56 | 1021.3 |
| 20260507133020 | 42 | 274 | 3.0 | 9.0 | 0.00 | 0.24 | 0.00 | 57 | 1021.5 |
| 20260507131515 | 41 | 240 | 2.0 | 10.0 | 0.00 | 0.24 | 0.00 | 61 | 1021.7 |